Date,TemperatureHighF,TemperatureAvgF,TemperatureLowF,DewpointHighF,DewpointAvgF,DewpointLowF,HumidityHigh,HumidityAvg,HumidityLow,PressureMaxIn,PressureMinIn,WindSpeedMaxMPH,WindSpeedAvgMPH,GustSpeedMaxMPH,PrecipitationSumIn
2013-1-22,33.8,32.5,31.1,24.7,23.1,22.3,70,68,66,28.95,28.90,8,3,9,0.00
2013-1-23,34.4,31.8,30.2,30.8,24.9,21.9,92,76,62,29.16,28.85,9,3,12,0.05
2013-1-24,43.2,37.3,32.0,40.5,34.7,29.8,94,90,80,29.19,29.06,10,3,14,0.29
2013-1-25,47.5,43.6,40.6,45.4,41.9,39.3,95,94,90,29.09,28.93,10,4,12,0.03
2013-1-26,41.9,39.3,37.2,39.5,37.4,35.4,95,93,88,29.05,28.90,12,4,14,0.14
2013-1-27,40.6,37.2,35.6,37.9,35.6,34.0,95,94,88,29.10,29.00,6,2,10,0.31
2013-1-28,39.2,38.2,36.7,37.7,36.7,35.4,95,94,94,29.15,29.03,5,0,5,0.98
2013-1-29,43.9,42.1,38.8,42.8,40.9,37.3,96,96,94,29.41,29.15,7,2,7,0.41
2013-1-30,45.9,43.1,40.8,44.6,41.9,39.8,96,95,95,29.41,29.37,10,3,10,0.54
2013-1-31,56.7,45.6,41.4,52.3,43.4,40.0,96,92,82,29.41,29.30,6,2,7,0.61
2013-2-1,57.2,46.3,40.8,50.4,42.9,37.3,95,88,76,29.34,29.24,5,1,5,0.01
2013-2-2,60.4,48.0,39.9,46.9,38.6,33.8,81,71,53,29.28,29.22,8,3,8,0.00
2013-2-3,44.8,40.9,37.4,41.4,38.1,33.7,93,90,78,29.29,29.19,7,2,8,0.00
2013-2-4,54.0,45.0,41.2,46.2,40.9,39.3,93,86,73,29.20,28.91,10,4,10,0.00
2013-2-5,50.2,43.5,40.8,44.8,40.4,39.1,95,89,75,29.00,28.88,15,8,15,0.06
2013-2-6,45.1,42.2,39.9,40.6,39.3,36.6,95,90,79,29.05,28.81,21,8,21,0.11
2013-2-7,56.1,40.3,33.4,41.9,35.3,29.4,94,83,55,29.10,28.85,11,4,11,0.01
2013-2-8,50.3,38.0,30.2,40.3,32.3,27.3,93,80,60,29.23,29.10,7,2,7,0.00
2013-2-9,50.7,39.9,33.4,42.4,35.5,30.2,90,85,65,29.25,29.20,5,1,5,0.00
2013-2-10,50.9,40.0,34.9,44.5,35.6,33.0,93,84,74,29.31,29.25,4,1,4,0.00
2013-2-11,45.2,39.4,37.8,39.1,36.3,33.7,94,89,66,29.34,29.21,6,2,6,0.05
2013-2-12,52.5,44.2,40.3,49.2,42.2,38.7,95,93,86,29.42,29.34,5,2,5,0.11
2013-2-13,54.9,45.0,38.1,46.6,40.6,34.9,94,85,66,29.46,29.37,7,2,7,0.05
2013-2-14,49.6,42.2,37.2,45.9,39.3,34.0,92,89,85,29.52,29.46,7,1,7,0.02
2013-2-15,69.1,50.4,36.7,51.2,42.9,34.8,95,77,52,29.46,29.17,12,2,12,0.00
2013-2-16,53.4,43.7,35.6,47.4,39.2,32.7,99,84,66,29.23,29.17,11,2,11,0.10
2013-2-17,50.4,39.7,33.4,39.4,34.2,30.8,92,81,64,29.24,29.06,6,1,6,0.00
2013-2-18,44.1,38.0,33.8,35.8,33.4,30.7,91,83,70,29.06,28.71,14,4,14,0.12
2013-2-19,61.1,44.1,35.6,46.2,36.6,31.2,92,76,47,28.96,28.67,9,3,9,0.11
2013-2-20,42.6,38.0,33.8,37.6,34.9,30.3,94,88,80,29.05,28.96,9,4,9,0.19
2013-2-21,40.5,38.3,36.3,38.1,36.4,34.5,94,93,89,29.12,29.02,12,5,12,0.13
2013-2-22,43.0,39.2,34.2,41.4,37.6,32.1,96,94,89,29.10,28.84,17,7,17,0.70
2013-2-23,52.5,38.8,33.4,43.1,34.9,31.5,94,86,63,29.38,29.01,7,2,7,0.20
2013-2-24,49.6,40.6,35.1,37.9,34.4,32.6,92,79,56,29.37,29.00,14,6,14,0.00
2013-2-25,48.6,39.1,34.3,42.1,35.5,31.2,92,87,75,29.32,28.96,14,3,14,0.39
2013-2-26,47.5,39.8,34.5,39.1,34.4,32.1,94,82,61,29.33,29.19,12,6,12,0.01
2013-2-27,48.0,43.3,40.3,41.8,38.8,35.2,93,84,78,29.28,29.19,13,6,13,0.05
2013-2-28,51.8,47.8,43.3,49.8,46.2,41.5,96,94,92,29.39,29.15,12,7,12,0.15
2013-3-1,55.9,51.2,47.8,50.5,48.0,44.8,94,89,81,29.41,29.28,12,6,12,0.01
2013-3-2,53.2,47.0,37.9,48.5,43.7,35.6,93,88,82,29.28,29.12,9,3,9,0.09
2013-3-3,55.6,41.4,33.4,41.5,35.2,30.8,93,80,54,29.26,29.20,6,2,6,0.00
2013-3-4,59.4,45.3,31.1,32.9,26.2,21.9,90,51,28,29.21,28.87,14,6,14,0.00
2013-3-5,45.5,41.8,39.2,39.4,32.3,22.5,90,71,40,28.87,28.63,15,6,15,0.24
2013-3-6,41.9,40.2,38.7,39.7,37.3,34.1,95,90,76,28.92,28.52,13,5,13,0.50
2013-3-7,66.4,46.3,36.7,42.8,36.8,30.6,94,72,38,29.03,28.92,10,4,10,0.00
2013-3-8,64.2,45.2,31.8,43.5,35.9,28.8,90,72,39,29.17,28.99,6,2,6,0.00
2013-3-9,64.6,46.5,33.4,45.3,35.7,30.3,90,68,41,29.44,29.17,7,2,7,0.00
2013-3-10,48.7,42.2,37.0,42.2,36.5,31.2,89,80,68,29.44,29.37,9,2,9,0.03
2013-3-11,51.4,46.3,42.1,46.6,43.0,39.1,94,88,80,29.38,29.20,8,3,8,0.01
2013-3-12,59.4,51.4,47.5,48.9,45.9,42.9,94,82,64,29.20,29.13,12,5,12,0.00
2013-3-13,60.1,52.2,46.8,49.4,45.0,42.5,88,77,63,29.19,29.07,9,4,10,0.00
2013-3-14,55.4,51.2,47.5,49.0,45.1,41.5,87,80,63,29.09,29.01,12,4,12,0.00
2013-3-15,63.9,53.0,44.2,53.9,46.6,40.9,91,79,60,29.20,29.13,8,3,8,0.23
2013-3-16,51.4,43.2,36.0,46.5,40.0,33.0,92,88,75,29.14,28.97,10,2,10,0.20
2013-3-17,48.2,39.0,33.4,41.8,34.8,31.4,93,85,69,29.24,29.06,7,2,7,0.13
2013-3-18,57.4,42.3,36.0,44.7,35.9,31.8,88,79,58,29.23,29.13,8,2,8,0.02
2013-3-19,48.8,42.4,36.0,43.2,35.2,27.9,93,77,53,29.13,28.62,18,6,20,0.69
2013-3-20,50.2,44.7,35.4,47.8,41.3,31.6,96,88,75,29.09,28.48,23,8,23,0.54
2013-3-21,48.2,38.0,32.9,41.8,34.2,29.6,93,86,69,29.23,29.09,7,2,7,0.21
2013-3-22,47.5,37.4,31.6,38.9,32.7,28.2,93,83,65,29.33,29.22,7,2,7,0.05
2013-3-23,58.5,40.1,31.8,39.8,31.8,26.6,90,74,43,29.33,29.22,6,1,6,0.00
2013-3-24,57.0,44.4,34.0,40.1,30.0,27.1,83,59,37,29.22,29.06,12,4,12,0.00
2013-3-25,50.9,43.5,40.3,39.8,30.7,27.3,74,60,55,29.06,28.92,2,1,2,0.02
2013-3-26,57.2,47.3,41.4,46.7,40.4,36.1,84,77,66,28.99,28.94,7,2,7,0.04
2013-3-27,70.5,57.8,48.6,49.0,44.9,41.5,88,64,39,28.97,28.89,8,3,9,0.04
2013-3-28,68.6,55.5,47.3,53.3,46.1,40.0,92,73,44,29.10,28.97,6,2,8,0.01
2013-3-29,77.4,58.0,45.7,52.0,45.8,41.3,88,66,38,29.18,29.10,7,2,8,0.00
2013-3-30,85.3,60.6,42.6,54.6,45.6,38.4,86,61,33,29.17,28.98,7,2,8,0.00
2013-3-31,84.0,62.3,47.3,51.5,45.1,38.5,73,56,29,28.99,28.89,7,2,7,0.00
2013-4-1,72.5,54.7,44.2,52.2,45.9,40.5,88,73,49,29.14,28.98,7,2,8,0.00
2013-4-2,67.6,52.6,45.0,53.3,46.0,42.2,91,79,56,29.18,29.12,6,2,6,0.00
2013-4-3,68.4,54.9,43.2,53.3,46.5,40.4,92,75,53,29.14,28.90,6,1,6,0.01
2013-4-4,56.7,53.4,50.0,52.6,48.1,44.1,93,83,67,28.90,28.66,22,6,22,0.30
2013-4-5,54.1,50.1,47.5,48.1,46.8,45.3,94,88,76,28.91,28.77,22,9,22,0.19
2013-4-6,57.7,47.3,41.0,47.1,42.9,37.7,94,85,58,28.96,28.67,18,7,22,0.56
2013-4-7,49.3,43.7,39.2,45.4,40.5,36.7,95,89,77,28.91,28.49,22,6,22,0.52
2013-4-8,55.8,44.6,37.4,47.6,40.0,35.0,93,84,60,29.24,28.91,6,1,6,0.06
2013-4-9,54.3,46.4,38.1,44.6,40.2,35.3,91,79,67,29.32,29.20,9,4,9,0.00
2013-4-10,61.0,50.3,42.8,49.6,43.5,38.3,93,78,56,29.28,29.05,15,6,15,0.26
2013-4-11,67.6,49.1,37.4,46.7,39.7,31.2,89,72,41,29.30,29.14,6,2,7,0.03
2013-4-12,49.8,42.2,35.2,41.8,37.2,30.9,93,83,67,29.14,28.79,12,3,12,0.15
2013-4-13,52.2,40.6,33.8,43.2,36.3,31.4,92,85,67,29.03,28.86,10,3,10,0.26
2013-4-14,40.3,38.2,36.9,37.6,35.7,34.5,92,91,88,29.02,28.97,5,2,5,0.02
2013-4-15,66.4,46.2,33.4,43.7,36.7,30.7,92,72,38,29.13,28.90,8,2,8,0.14
2013-4-16,64.9,47.1,35.1,45.2,36.9,31.7,90,71,31,29.35,29.12,9,2,9,0.06
2013-4-17,62.6,47.5,36.0,45.6,37.7,32.4,88,70,46,29.43,29.35,6,2,6,0.00
2013-4-18,57.3,48.3,40.6,44.3,40.6,35.6,90,75,60,29.43,29.25,6,2,7,0.06
2013-4-19,54.3,48.1,46.0,50.4,45.8,43.3,95,92,84,29.26,29.10,12,4,12,0.37
2013-4-20,60.1,48.4,42.4,49.9,43.3,38.2,92,83,66,29.30,29.23,5,1,5,0.02
2013-4-21,56.8,46.2,40.3,48.0,41.7,36.7,90,84,65,29.27,29.21,5,1,5,0.02
2013-4-22,72.3,52.4,37.2,49.7,38.6,31.2,91,63,30,29.40,29.27,9,3,9,0.00
2013-4-23,76.6,55.7,38.1,45.5,34.4,27.4,79,49,22,29.35,29.14,8,2,10,0.00
2013-4-24,81.9,61.1,43.5,43.7,34.0,26.4,61,38,21,29.22,29.00,8,2,8,0.00
2013-4-25,81.5,60.7,46.2,49.9,40.1,32.0,80,49,30,29.13,28.99,8,2,8,0.00
2013-4-26,87.4,71.7,47.8,52.6,42.5,32.4,79,37,22,29.22,29.13,7,2,7,0.00
2013-4-27,69.3,55.8,47.7,45.9,39.9,31.7,84,57,37,29.23,29.18,6,2,6,0.01
2013-4-28,71.4,55.6,48.4,50.7,44.4,40.2,86,68,38,29.22,29.02,8,2,8,0.03
2013-4-29,62.8,48.9,37.0,44.6,37.4,29.5,90,67,33,29.17,29.01,10,3,14,0.05
2013-4-30,67.6,47.0,36.0,40.8,33.6,27.8,85,63,31,29.39,29.17,7,2,8,0.00
2013-5-1,77.2,53.4,34.2,42.9,34.9,28.2,80,53,23,29.47,29.39,7,2,9,0.00
2013-5-2,81.7,63.1,47.8,47.1,36.2,26.6,51,38,21,29.43,29.23,9,3,9,0.00
2013-5-3,84.2,64.5,45.0,51.0,40.0,31.4,67,43,23,29.26,29.11,9,3,9,0.00
2013-5-4,92.3,70.0,51.1,53.4,41.1,30.7,64,39,13,29.12,28.92,9,3,9,0.00
2013-5-5,93.6,75.5,62.1,46.6,36.6,30.2,38,25,15,28.93,28.73,13,3,13,0.00
2013-5-6,90.7,70.4,54.5,55.7,45.2,32.0,72,42,26,28.86,28.76,6,2,6,0.00
2013-5-7,81.7,61.0,46.2,55.5,47.9,41.4,89,65,35,28.99,28.84,8,2,8,0.00
2013-5-8,80.4,58.2,48.4,56.3,48.4,43.9,88,72,42,29.13,29.00,6,2,6,0.00
2013-5-9,85.5,61.8,46.8,58.5,50.3,43.1,91,70,36,29.16,29.06,7,2,7,0.00
2013-5-10,88.9,68.3,52.0,60.9,52.8,46.2,84,60,36,29.17,29.09,7,2,7,0.00
2013-5-11,91.4,69.0,52.5,62.2,53.3,45.2,80,60,35,29.16,29.01,8,2,8,0.00
2013-5-12,69.3,62.2,55.8,59.7,54.7,51.0,89,76,66,29.10,29.03,10,4,10,0.02
2013-5-13,66.6,56.5,45.5,57.7,49.8,38.7,92,79,52,29.19,29.00,13,5,13,0.14
2013-5-14,76.3,56.5,42.6,49.1,41.1,36.0,84,60,29,29.20,29.08,9,2,9,0.00
2013-5-15,57.6,51.0,45.3,50.7,45.0,39.4,89,80,70,29.08,28.99,7,3,7,0.06
2013-5-16,72.0,56.3,49.6,56.4,49.8,46.2,90,80,52,28.99,28.90,8,3,8,0.12
2013-5-17,66.4,54.6,47.1,55.8,47.5,42.6,93,78,54,29.06,28.95,8,2,8,0.09
2013-5-18,59.4,52.1,47.1,50.4,46.3,41.9,88,81,66,29.24,29.06,7,3,7,0.00
2013-5-19,77.4,56.6,45.0,53.6,47.6,40.1,92,74,41,29.37,29.24,8,2,8,0.15
2013-5-20,85.8,58.2,43.2,53.1,45.8,39.8,91,68,31,29.30,28.89,7,2,7,0.00
2013-5-21,57.9,46.8,41.5,49.9,42.1,38.1,90,84,72,28.92,28.80,8,2,8,0.48
2013-5-22,45.7,42.1,39.6,43.3,40.1,37.7,95,93,90,28.92,28.87,10,5,10,1.46
2013-5-23,48.7,44.8,42.3,46.3,43.1,40.1,95,94,91,28.97,28.89,16,7,16,0.89
2013-5-24,47.5,45.0,44.6,45.7,43.6,43.0,95,95,94,29.00,28.92,10,6,10,0.26
2013-5-29,67.5,53.2,47.5,55.5,47.6,42.9,94,82,56,29.02,28.60,14,4,14,0.48
2013-5-30,68.4,52.6,45.7,54.3,46.3,41.7,91,80,56,29.22,29.02,8,2,8,0.13
2013-5-31,78.1,58.9,46.4,52.8,46.9,42.1,89,67,38,29.29,29.19,8,2,8,0.00
2013-6-1,82.8,62.5,48.2,57.5,48.9,41.3,84,63,40,29.21,29.02,7,2,7,0.00
2013-6-2,77.9,61.6,49.1,55.9,49.7,45.0,90,67,45,29.07,29.00,10,3,10,0.00
2013-6-3,83.1,60.8,48.0,56.5,48.9,43.7,87,68,40,29.09,29.02,8,3,8,0.00
2013-6-4,94.3,67.2,45.3,60.5,50.6,42.0,89,60,27,29.06,28.97,7,2,7,0.00
2013-6-5,88.0,68.2,52.2,63.3,53.9,45.3,85,62,42,29.06,28.98,8,3,8,0.00
2013-6-6,88.5,65.6,49.5,62.6,52.8,43.5,91,66,40,29.03,28.97,8,3,8,0.00
2013-6-7,85.1,64.4,50.0,58.4,47.5,38.6,80,56,34,29.14,29.03,7,2,7,0.00
2013-6-8,86.4,63.4,46.0,57.8,48.6,42.1,88,62,36,29.14,29.05,7,3,7,0.00
2013-6-9,79.3,60.7,47.1,51.7,46.8,40.7,86,63,35,29.08,28.99,8,3,8,0.00
2013-6-10,76.3,56.9,42.8,50.6,43.9,38.6,87,65,38,29.00,28.90,8,3,8,0.49
2013-6-11,66.6,55.1,45.9,52.9,45.9,40.5,86,72,53,29.11,28.95,8,2,8,0.14
2013-6-12,65.5,54.0,47.5,53.6,47.1,41.9,88,78,56,29.14,29.09,8,1,8,0.38
2013-6-13,70.0,55.3,48.2,57.9,49.4,44.3,92,81,61,29.24,29.12,6,1,6,0.44
2013-6-14,79.3,59.3,48.0,56.4,49.5,44.3,90,72,43,29.24,28.97,8,2,8,0.00
2013-6-15,86.9,66.0,48.2,60.2,52.0,44.4,89,64,37,28.99,28.90,6,2,6,0.00
2013-6-16,81.0,65.6,52.3,59.3,53.3,47.9,88,66,46,29.08,28.98,7,2,7,0.31
2013-6-17,80.8,63.9,51.6,57.8,51.4,47.6,88,66,34,29.07,28.93,10,3,10,0.00
2013-6-18,72.0,59.6,51.4,57.2,49.2,45.0,89,70,43,28.98,28.92,13,4,13,0.17
2013-6-19,74.1,58.3,49.1,57.6,49.0,44.1,88,72,51,29.05,28.92,6,1,6,0.02
2013-6-20,71.6,58.3,50.7,56.6,49.2,44.6,90,73,51,29.11,29.01,8,3,8,0.05
2013-6-21,76.5,60.4,50.4,55.0,50.0,46.1,88,70,43,29.14,29.09,8,2,8,0.00
2013-6-22,87.6,67.6,49.5,59.8,50.3,43.8,91,59,25,29.10,28.83,7,2,7,0.00
2013-6-23,72.7,62.8,58.5,62.3,55.2,46.4,91,77,54,28.83,28.62,8,2,8,0.28
2013-6-24,67.3,58.6,53.2,56.7,53.6,50.7,94,84,65,28.69,28.60,13,6,13,0.16
2013-6-25,68.0,59.6,54.9,60.7,54.4,51.5,90,83,65,28.84,28.66,13,6,13,0.24
2013-6-26,73.8,62.2,55.4,60.2,55.8,52.2,93,80,60,29.03,28.83,12,6,12,0.05
2013-6-27,85.6,66.9,58.1,65.7,58.8,54.7,91,76,50,29.15,28.99,9,3,9,0.03
2013-6-28,98.1,75.5,59.0,70.8,61.7,55.3,91,66,38,29.13,29.03,7,2,7,0.00
2013-6-29,98.1,77.3,59.5,64.3,58.6,52.0,81,55,31,29.09,28.96,8,2,8,0.00
2013-6-30,106.2,81.6,61.7,70.3,63.4,56.3,84,58,31,28.98,28.84,9,2,9,0.00
2013-7-1,98.6,75.7,59.7,70.7,61.8,56.1,90,65,38,29.00,28.88,7,3,7,0.00
2013-7-2,92.5,71.6,56.3,67.0,58.4,51.7,90,66,39,29.06,29.00,8,3,8,0.00
2013-7-3,89.4,66.5,52.9,61.8,52.9,47.3,87,65,35,29.11,29.03,8,3,8,0.00
2013-7-4,78.3,63.3,51.1,55.8,50.7,46.4,88,66,44,29.11,29.03,8,3,8,0.00
2013-7-5,84.6,63.4,51.4,56.9,50.9,46.0,83,66,37,29.04,28.94,7,2,7,0.00
2013-7-6,88.2,63.9,50.7,60.2,52.6,46.7,88,70,35,28.96,28.84,8,3,8,0.00
2013-7-7,82.4,63.4,54.0,60.8,53.8,48.9,90,73,45,28.95,28.87,7,3,7,0.00
2013-7-8,89.8,66.6,53.2,62.9,54.2,48.5,85,67,40,29.07,28.95,8,3,8,0.00
2013-7-9,93.9,72.8,55.8,65.0,58.2,50.0,90,64,37,29.05,28.97,8,2,8,0.00
2013-7-10,82.2,63.7,50.7,57.6,51.1,44.1,90,66,39,29.05,28.94,7,3,7,0.00
2013-7-11,82.9,62.3,48.2,53.9,47.3,43.3,85,61,35,29.05,28.95,9,3,9,0.00
2013-7-12,78.6,60.1,47.7,55.0,48.2,43.1,88,67,42,29.08,28.97,7,2,7,0.00
2013-7-13,87.1,65.8,46.4,54.7,47.1,40.8,86,55,26,29.13,29.03,8,3,8,0.00
2013-7-15,93.9,82.0,69.1,56.8,48.7,42.5,46,32,24,28.88,28.81,8,4,8,0.00
2013-7-16,99.3,76.5,60.8,64.5,52.3,41.0,76,44,27,28.94,28.78,9,2,9,0.00
2013-7-17,85.3,65.1,54.9,59.4,54.0,49.7,85,69,41,29.15,28.94,9,3,9,0.00
2013-7-18,89.2,66.9,50.9,61.2,53.8,47.3,89,66,38,29.18,29.05,8,3,8,0.00
2013-7-19,86.7,64.7,52.9,63.4,54.5,49.4,90,72,43,29.11,28.99,8,4,8,0.00
2013-7-20,86.4,71.8,55.2,61.6,57.6,50.8,86,63,43,29.06,28.94,6,2,6,0.00
2013-7-21,71.4,71.4,71.4,58.2,58.2,58.2,63,63,63,29.02,29.02,2,2,2,0.00
2013-7-22,86.9,73.3,58.6,63.0,57.9,53.5,83,61,45,29.02,28.95,6,2,6,0.00
2013-7-23,95.0,70.1,54.7,65.8,57.7,51.5,91,68,36,29.03,28.93,8,2,8,0.00
2013-7-24,95.2,70.7,52.5,64.0,56.3,49.4,92,64,35,29.02,28.97,7,2,7,0.00
2013-7-25,92.3,69.2,50.0,62.4,54.1,46.6,89,63,36,29.06,28.98,7,3,7,0.00
2013-7-26,90.3,67.9,50.4,62.1,52.3,45.8,89,61,32,29.13,29.02,7,3,7,0.00
2013-7-27,85.1,64.0,51.8,56.1,50.6,45.8,85,65,34,29.15,29.00,8,2,8,0.00
2013-7-28,78.4,60.6,52.7,56.8,51.2,47.4,84,73,46,29.03,28.97,6,2,6,0.00
2013-7-29,61.3,60.7,55.4,56.1,55.5,50.3,84,83,81,29.03,28.99,4,2,4,0.00
2013-7-30,88.9,65.4,53.2,61.4,54.4,49.5,90,70,39,29.13,29.00,7,2,7,0.00
2013-7-31,81.0,64.0,54.9,61.3,55.2,50.5,91,75,49,29.08,28.97,8,2,8,0.00
2013-8-1,67.3,56.8,53.8,56.3,52.1,50.3,89,85,66,29.07,29.02,5,1,5,0.00
2013-8-2,67.1,67.1,67.1,55.8,55.8,55.8,67,67,67,29.08,29.08,0,0,1,0.00
2013-8-4,95.2,77.8,61.3,66.3,60.2,55.1,81,58,38,28.94,28.90,6,2,6,0.00
2013-8-5,93.9,71.3,56.3,65.3,57.8,48.3,89,66,37,28.99,28.90,7,3,7,0.00
2013-8-6,97.5,72.9,54.7,62.5,54.0,45.6,80,55,29,28.97,28.89,7,2,7,0.00
2013-8-7,92.1,72.7,57.4,63.6,57.4,51.3,87,61,38,29.01,28.91,7,3,7,0.00
2013-8-8,87.1,66.0,55.4,65.4,56.8,51.4,90,74,46,29.02,28.90,8,2,8,0.00
2013-8-9,84.6,65.4,52.7,64.4,56.1,49.5,92,73,49,28.93,28.84,7,2,7,0.01
2013-8-10,82.4,65.6,56.5,63.8,57.6,53.1,90,77,50,29.00,28.87,6,2,6,0.00
2013-8-11,77.0,63.6,55.9,60.7,55.7,52.3,90,77,54,29.04,28.98,7,2,7,0.01
2013-8-12,88.3,67.5,56.3,59.5,54.7,49.5,88,67,37,29.05,28.99,8,2,8,0.00
2013-8-13,95.5,69.8,52.5,60.0,52.4,48.0,87,59,25,29.07,28.90,6,2,6,0.00
2013-8-14,84.6,72.9,62.6,57.6,54.5,48.1,74,54,33,28.95,28.90,9,3,9,0.00
2013-8-15,76.8,68.8,62.2,67.3,61.7,55.8,91,78,67,28.96,28.92,6,2,6,0.01
2013-8-16,92.5,72.0,60.4,67.4,60.9,50.4,92,71,40,29.01,28.94,6,2,6,0.01
2013-8-17,86.4,70.1,58.5,62.3,55.7,48.6,85,62,41,29.07,29.00,6,2,6,0.00
2013-8-18,88.9,69.7,58.1,62.2,56.6,52.8,87,66,39,29.11,29.04,7,2,7,0.00
2013-8-19,85.3,68.1,55.8,60.9,55.1,51.3,86,66,37,29.10,29.04,8,2,8,0.00
2013-8-20,88.2,67.3,50.0,58.4,50.8,45.0,88,60,30,29.10,28.96,9,3,9,0.00
2013-8-21,96.8,72.5,53.2,59.8,51.8,44.3,78,51,27,28.99,28.85,7,3,7,0.00
2013-8-22,84.4,72.0,60.4,60.6,54.0,48.6,68,54,41,28.88,28.83,7,1,7,0.00
2013-8-23,80.2,64.3,57.0,60.0,55.1,50.2,89,74,46,28.92,28.85,8,2,8,0.02
2013-8-24,81.7,66.1,57.0,60.9,54.1,49.0,89,68,39,28.89,28.84,7,2,7,0.01
2013-8-25,71.8,62.0,53.1,59.1,53.8,48.7,87,75,61,28.90,28.87,5,1,5,0.02
2013-8-26,76.3,63.5,57.9,59.2,55.4,49.2,92,77,42,28.95,28.87,14,5,14,0.22
2013-8-27,87.1,67.9,58.1,64.8,58.8,55.2,92,75,42,28.94,28.79,7,3,7,0.06
2013-8-28,85.3,69.7,59.5,65.2,59.8,56.6,92,73,44,28.89,28.81,5,2,5,0.07
2013-8-29,76.1,66.4,61.2,67.2,61.1,58.2,91,84,65,29.03,28.81,14,5,14,0.20
2013-8-30,88.3,69.8,61.0,64.8,59.4,53.4,92,72,41,29.12,29.02,7,3,7,0.00
2013-8-31,97.9,71.7,55.4,63.9,57.2,51.3,89,64,31,29.02,28.81,7,2,7,0.00
2013-9-1,89.8,69.7,55.9,62.7,55.3,50.1,88,63,34,28.87,28.80,8,2,8,0.00
2013-9-2,87.8,70.9,60.3,61.5,56.1,51.3,76,61,38,28.91,28.84,7,2,7,0.00
2013-9-3,87.4,68.6,57.7,62.7,57.2,53.4,90,70,38,28.97,28.89,5,2,5,0.28
2013-9-4,75.0,63.7,57.7,63.6,57.5,53.9,90,81,65,29.03,28.94,5,1,5,0.00
2013-9-5,68.4,61.3,56.3,61.9,57.5,54.0,93,87,75,29.02,28.91,9,2,9,0.85
2013-9-6,63.7,59.0,55.6,60.2,56.6,53.6,94,92,85,29.09,28.97,9,3,9,1.70
2013-9-7,85.8,67.0,55.4,65.6,58.7,53.2,93,77,46,29.08,28.95,6,2,6,0.01
2013-9-8,90.7,72.5,56.5,66.4,60.0,53.3,91,67,40,29.05,28.97,6,2,6,0.00
2013-9-9,87.8,68.3,57.4,65.9,59.4,54.9,93,76,46,29.01,28.90,7,2,7,0.00
2013-9-10,98.1,73.7,57.4,71.1,60.5,52.5,92,67,35,28.91,28.80,6,2,6,0.01
2013-9-11,102.9,81.2,60.1,70.7,59.2,52.3,81,49,31,28.91,28.82,6,2,6,0.00
2013-9-12,85.6,67.2,57.2,66.2,58.2,53.7,89,75,50,28.97,28.89,6,2,6,0.00
2013-9-13,78.1,62.6,57.2,63.5,57.4,54.4,91,84,59,28.94,28.82,6,2,6,0.00
2013-9-14,87.1,67.6,59.4,67.7,59.9,56.1,90,78,51,28.84,28.69,6,2,6,0.00
2013-9-15,63.1,60.0,58.5,59.8,57.2,55.8,92,90,87,28.77,28.69,5,1,5,0.02
2013-9-17,66.0,66.0,66.0,55.1,55.1,55.1,68,68,68,28.85,28.85,1,1,2,0.00
2013-9-19,52.9,52.9,52.9,47.2,47.2,47.2,81,81,81,28.98,28.98,1,1,2,0.00
2013-9-20,60.9,60.9,60.9,49.9,49.9,49.9,67,67,67,28.66,28.66,3,3,5,0.00
2013-9-21,57.6,57.6,57.6,54.3,54.3,54.3,89,89,89,28.68,28.68,2,2,2,0.00
2013-9-22,52.6,52.6,52.6,50.3,50.3,50.3,92,92,92,28.63,28.63,9,9,9,0.00
2013-9-27,50.4,50.4,50.4,48.7,48.7,48.7,94,94,94,28.96,28.96,6,6,8,0.00
2013-9-30,58.6,58.6,58.6,51.4,51.4,51.4,77,77,77,28.85,28.85,6,6,7,0.00
2013-10-2,45.7,45.7,45.7,43.2,43.2,43.2,91,91,91,29.04,29.04,3,3,5,0.00
2013-10-3,54.1,54.1,54.1,48.1,48.1,48.1,80,80,80,29.34,29.34,0,0,1,0.00
2013-10-4,71.6,71.6,71.6,57.9,57.9,57.9,62,62,62,29.33,29.33,0,0,2,0.00
2013-10-5,80.2,63.3,49.5,51.5,46.6,39.7,69,56,37,29.28,29.10,1,0,1,0.00
2013-10-6,71.8,65.4,59.0,46.0,45.8,45.5,62,50,39,29.00,28.94,5,5,7,0.00
2013-10-7,55.8,52.8,50.4,48.9,47.4,46.2,88,82,70,29.04,28.93,2,2,4,0.25
2013-10-8,49.8,49.8,49.8,46.7,46.7,46.7,89,89,89,28.99,28.99,1,1,1,0.00
2013-10-9,52.1,46.8,40.1,45.4,41.9,38.3,93,83,78,29.05,28.92,1,0,2,0.00
2013-10-10,52.7,52.5,52.2,47.4,47.1,46.8,82,82,82,28.96,28.96,2,2,2,0.00
2013-10-11,55.6,55.6,55.6,49.5,49.5,49.5,80,80,80,29.08,29.08,0,0,2,0.00
2013-10-12,44.8,44.7,44.5,42.0,41.8,41.5,90,90,89,29.02,29.01,0,0,0,0.00
2013-10-13,47.3,47.3,47.3,40.8,40.8,40.8,78,78,78,29.24,29.24,1,1,1,0.00
2013-10-14,67.6,66.9,66.2,50.9,50.7,50.5,57,56,55,29.30,29.28,2,2,4,0.00
2013-10-15,60.8,55.8,50.9,43.1,41.3,39.5,65,58,52,29.25,29.09,0,0,2,0.00
2013-10-16,66.2,64.6,63.0,50.2,50.1,50.0,63,60,56,29.10,29.08,1,1,4,0.00
2013-10-17,69.1,69.1,69.1,53.7,53.7,53.7,58,58,58,29.13,29.13,1,1,2,0.00
2013-10-18,53.1,51.8,50.5,43.2,42.5,41.8,72,70,69,29.13,29.13,1,0,1,0.00
2013-10-19,71.2,66.1,60.9,53.2,49.2,45.1,56,54,53,29.09,29.06,1,0,2,0.00
2013-10-21,66.2,56.8,47.3,53.7,48.7,43.6,87,76,64,29.04,29.02,1,0,2,0.00
2013-10-22,61.9,58.9,55.9,46.0,43.7,41.4,58,57,56,29.00,28.94,1,0,1,0.00
2013-10-23,83.9,83.9,83.9,54.8,54.8,54.8,37,37,37,28.92,28.92,1,1,1,0.00
2013-10-24,57.7,57.7,57.7,46.0,46.0,46.0,65,65,65,28.98,28.98,1,1,2,0.00
2013-10-25,45.5,45.5,45.5,41.9,41.9,41.9,87,87,87,29.21,29.21,0,0,1,0.01
2013-10-26,60.8,50.6,47.1,48.9,45.1,43.7,88,82,65,29.22,29.19,1,1,3,0.00
2013-10-27,61.6,59.2,56.7,48.1,47.8,47.6,73,66,60,28.81,28.79,5,4,6,0.00
2013-11-3,49.5,43.2,40.6,44.2,39.7,37.9,90,88,82,29.06,29.03,3,1,3,0.22
2013-11-4,46.2,42.7,39.9,42.4,40.3,37.2,94,91,85,29.11,29.03,12,4,12,0.31
2013-11-5,52.9,46.5,43.7,51.5,44.5,41.0,95,93,90,29.18,29.01,12,4,12,0.17
2013-11-6,52.5,49.5,45.3,49.1,47.1,42.8,94,91,88,29.19,29.01,8,4,8,0.28
2013-11-7,53.1,47.1,43.5,50.8,45.3,41.9,95,93,87,29.04,28.79,14,5,14,0.70
2013-11-8,52.3,45.0,41.2,49.2,42.4,38.3,94,91,86,29.13,29.04,5,2,5,0.03
2013-11-9,48.2,43.6,38.5,43.7,40.6,36.1,93,89,83,29.07,28.98,3,0,3,0.00
2013-11-10,61.5,50.1,43.0,51.3,44.7,40.0,90,82,66,29.04,28.97,4,1,4,0.00
2013-11-11,61.5,51.1,41.0,48.9,40.9,37.1,93,70,50,29.09,28.94,15,5,15,0.01
2013-11-12,53.6,50.0,45.5,49.5,46.3,38.8,94,87,58,29.36,29.00,13,5,13,0.12
2013-11-13,66.6,48.5,42.4,55.3,45.1,39.6,94,88,65,29.41,29.22,4,1,4,0.01
2013-11-14,49.5,43.7,39.2,46.8,41.5,37.3,93,92,89,29.22,29.03,5,1,5,0.06
2013-11-15,44.2,41.6,39.4,41.7,39.8,37.5,95,93,89,29.04,28.47,10,3,10,0.35
2013-11-16,42.8,41.0,38.5,40.9,38.9,36.9,95,92,89,28.78,28.46,9,2,9,0.13
2013-11-17,47.8,44.2,40.8,45.5,42.3,38.3,95,93,89,28.92,28.78,13,6,13,0.06
2013-11-18,48.0,46.5,45.5,46.9,44.4,42.7,96,93,88,28.90,28.64,16,8,16,0.35
2013-11-19,48.4,42.6,31.3,47.3,41.0,29.0,96,94,91,28.95,28.65,10,2,10,0.28
2013-11-20,50.2,36.8,27.7,39.1,29.6,20.8,93,76,58,29.34,28.95,6,2,6,0.01
2013-11-21,63.7,39.2,28.4,39.5,22.4,11.7,70,51,34,29.50,29.34,5,1,5,0.00
2013-11-22,58.1,43.0,30.4,30.7,15.6,9.6,49,34,17,29.49,29.33,16,4,16,0.00
2013-11-23,64.2,44.2,32.7,34.0,20.2,14.4,55,39,22,29.33,29.10,14,3,14,0.00
2013-11-24,61.0,42.0,31.8,29.3,22.7,17.3,65,47,28,29.20,29.08,7,3,7,0.00
2013-11-25,54.7,41.4,32.7,33.2,26.4,23.0,69,56,41,29.26,29.20,8,3,8,0.00
2013-11-26,47.8,40.2,34.3,30.6,27.5,24.8,69,61,51,29.21,29.01,10,3,10,0.00
2013-11-27,59.4,44.1,36.7,39.3,30.6,27.0,70,59,46,29.01,28.90,7,2,7,0.00
2013-11-28,68.4,44.6,34.7,42.1,31.2,26.4,73,60,36,29.14,28.96,7,2,7,0.00
2013-11-29,44.2,40.0,34.7,39.5,34.3,29.4,88,80,68,29.28,29.13,6,1,6,0.01
2013-11-30,48.6,44.2,39.9,42.3,40.1,36.7,93,86,76,29.30,29.12,13,4,13,0.30
2013-12-1,51.1,48.1,43.7,49.4,46.4,41.6,95,94,93,29.12,28.85,15,5,15,1.38
2013-12-2,44.6,37.1,33.8,41.6,34.7,31.4,94,91,84,28.98,28.85,7,1,7,0.23
2013-12-3,42.3,33.1,26.4,38.3,30.0,22.5,94,88,78,29.20,28.97,5,1,5,0.01
2013-12-4,48.7,30.8,23.2,32.5,22.0,15.3,89,71,46,29.25,29.19,7,2,7,0.01
2013-12-5,38.1,26.3,20.5,25.0,17.3,12.8,77,69,57,29.21,29.05,13,3,13,0.00
2013-12-6,28.4,24.3,19.9,15.6,11.3,6.7,74,57,48,29.05,28.92,16,7,16,0.00
2013-12-7,39.7,22.8,14.9,19.6,9.3,5.4,70,56,40,29.32,29.02,7,1,7,0.00
2013-12-8,36.7,21.0,12.9,21.0,10.8,5.7,79,65,46,29.48,29.31,5,1,5,0.00
2013-12-9,27.5,22.2,15.4,21.4,15.9,10.0,88,77,64,29.48,29.41,8,2,8,0.00
2013-12-10,37.8,29.7,24.6,34.2,26.6,21.3,91,88,84,29.43,29.30,5,1,5,0.06
2013-12-11,45.0,32.6,26.1,37.8,28.4,23.8,93,85,69,29.31,29.11,9,2,9,0.01
2013-12-12,39.7,34.3,27.0,36.6,30.2,23.6,93,85,70,29.14,29.02,16,7,16,0.24
2013-12-13,44.2,41.6,38.5,42.2,39.4,36.6,95,92,86,29.36,29.13,12,4,12,0.04
2013-12-14,45.3,39.2,36.9,41.8,37.1,35.2,94,92,88,29.37,29.28,9,3,9,0.00
2013-12-15,45.9,40.9,37.2,44.2,39.2,35.7,95,94,91,29.40,29.32,12,3,12,0.05
2013-12-16,48.6,39.8,36.3,45.8,37.9,34.4,95,93,89,29.39,29.18,5,1,5,0.02
2013-12-17,39.7,35.0,30.9,38.2,33.4,29.1,95,94,92,29.18,29.10,7,2,7,0.04
2013-12-18,43.9,35.8,30.4,42.5,34.2,28.6,95,94,93,29.10,28.97,5,1,5,0.09
2013-12-19,45.3,32.4,27.3,38.8,29.4,25.3,94,89,75,29.24,29.03,8,1,8,0.01
2013-12-20,35.1,31.3,29.8,33.8,29.7,28.0,95,94,92,29.14,28.80,16,8,16,0.05
2013-12-21,42.3,42.1,42.1,40.8,40.8,40.5,95,95,95,29.15,29.14,6,4,6,0.37
2013-12-22,48.9,44.6,41.9,47.3,43.1,40.6,95,95,94,29.28,29.14,8,4,8,0.15
2013-12-23,47.3,43.9,37.6,46.0,42.3,35.7,96,94,93,29.46,29.21,10,4,10,0.31
2013-12-24,52.2,39.4,32.0,47.4,36.5,29.7,95,89,76,29.52,29.40,5,1,5,0.00
2013-12-25,42.3,34.5,30.7,39.5,32.2,28.9,94,91,86,29.40,29.30,5,1,5,0.01
2013-12-26,42.6,32.7,27.3,39.3,30.5,25.6,94,91,85,29.31,29.13,6,1,6,0.00
2013-12-27,39.9,33.0,27.1,38.1,31.3,25.4,95,93,90,29.31,29.10,8,2,8,0.01
2013-12-28,43.2,38.9,35.2,41.1,37.0,33.1,95,93,88,29.41,29.30,5,1,5,0.01
2013-12-29,39.6,35.6,32.7,37.7,33.8,30.7,94,93,91,29.37,29.20,5,1,5,0.00
2013-12-30,40.8,37.2,33.3,38.4,35.1,31.5,94,92,86,29.21,29.09,12,2,12,0.00
2013-12-31,47.5,41.8,37.6,43.6,39.1,35.1,93,90,87,29.28,29.14,10,2,10,0.01
2014-1-1,48.6,40.7,35.4,45.8,38.7,33.9,95,93,88,29.29,29.17,5,1,5,0.01
2014-1-2,49.5,41.2,35.6,43.2,37.7,34.0,95,87,73,29.18,28.94,10,5,10,0.10